Regional Weather Roundup
Issued by NWS

Home | Current Version | Previous Version | Graphics & Text | Print | Product List | Glossary Off
Versions: 1 2 3 4 5 6 7 8 9 10 11 12 13 14 15 16 17 18 19 20 21 22 23 24 25 26 27 28 29 30 31 32 33 34 35 36 37 38 39 40 41 42 43 44 45 46 47 48 49 50

000
ASUS43 KMKX 241300
RWRWI

WISCONSIN REGIONAL WEATHER ROUNDUP
NATIONAL WEATHER SERVICE MILWAUKEE/SULLIVAN WI
800 AM CDT FRI OCT 24 2014

NOTE: "FAIR" INDICATES FEW OR NO CLOUDS BELOW 12,000 FEET WITH NO
SIGNIFICANT WEATHER AND/OR OBSTRUCTIONS TO VISIBILITY.

WIZ001-002-006>008-014>016-023>028-241400-
NORTHWEST WISCONSIN

CITY           SKY/WX    TMP DP  RH WIND       PRES   REMARKS
SUPERIOR ARPT  FOG       37  37 100 CALM      29.88F VSB 1/2
ASHLAND        CLOUDY    45  44  97 S3        29.91S FOG
HAYWARD        CLOUDY    48  46  93 S5        29.94R
SIREN          MOCLDY    47  46  97 SE6       29.91S FOG
CUMBERLAND     CLOUDY    46  45  93 SE8       29.94S FOG
RICE LAKE      CLOUDY    49  47  94 SE9       29.96F FOG
CHETEK         CLOUDY    48  48  98 SE5       29.96S FOG
LADYSMITH      FOG       47  47  97 S6        29.99S VSB 1
EAU CLAIRE     NOT AVBL
MENOMONIE      NOT AVBL
NEW RICHMOND   CLOUDY    45  45 100 SE5       29.92F FOG
OSCEOLA        CLOUDY    47  47 100 SE8       29.94S
$$

WIZ003>005-009-010-017-018-241400-
NORTH CENTRAL WISCONSIN

CITY           SKY/WX    TMP DP  RH WIND       PRES   REMARKS
MANITOWISH WTR CLOUDY    44  44 100 S5        29.96S FOG
ARBOR VITAE    FOG       44  43  97 S8        29.97S VSB 1/4
WOODRUFF       FOG       44  43  97 S8        29.97S VSB 1/4
RHINELANDER    FOG       43  42  97 SW5       29.99S VSB 1/4
EAGLE RIVER    FOG       42  42 100 CALM      29.96F VSB 1/4
LAND O LAKES   FOG       44  44 100 S6        29.97S VSB 1/4
PHILLIPS       CLOUDY    44  44 100 S6        29.97R FOG
TOMAHAWK       FOG       43  42  97 CALM      29.98F VSB 3/4
MEDFORD        FOG       43  43 100 S5        29.98S VSB<1/4
MERRILL        FOG       44  44 100 S3        29.99F VSB 3/4
$$

WIZ029-030-035-036-043>047-241400-
CENTRAL WISCONSIN

CITY           SKY/WX    TMP DP  RH WIND       PRES   REMARKS
WAUSAU         FOG       44  44 100 SW3       29.99F VSB 3/4
MOSINEE        NOT AVBL
MARSHFIELD     FOG       46  45  96 S7        29.99F VSB<1/4
STEVENS POINT  FOG       44  44 100 S3        30.02S VSB 1/4
WAUPACA        CLOUDY    48  47  97 W5        30.03S FOG
WAUTOMA        FOG       46  46 100 CALM      30.04R VSB 3/4
WISC RAPIDS    FOG       46  45  96 S5        30.03F VSB 1/4
CAMP DOUGLAS   FOG       46  46 100 S3        30.02F VSB 1
$$

WIZ011>013-019>022-031-037>040-048>050-241400-
NORTHEAST WISCONSIN

CITY           SKY/WX    TMP DP  RH WIND       PRES   REMARKS
ANTIGO         FOG       42  42 100 CALM      30.00F VSB<1/4
SHAWANO        CLOUDY    47  46  95 W3        30.03R FOG
OCONTO         CLOUDY    46  46 100 W7        30.02R
STURGEON BAY   CLOUDY    48  45  87 SW5       30.02S
GREEN BAY      CLOUDY    48  47  96 SW6       30.03R FOG
MANITOWOC      NOT AVBL
APPLETON         N/A     46  46 100 VRB6      30.03S FOG
CLINTONVILLE   CLOUDY    46  45  93 W3        30.02S FOG
OSHKOSH        CLOUDY    48  47  96 VRB3      30.03R FOG
$$

WIZ032>034-041-042-053>061-241400-
SOUTHWEST WISCONSIN

CITY           SKY/WX    TMP DP  RH WIND       PRES   REMARKS
LA CROSSE      CLOUDY    51  50  96 S10       29.99F FOG
SPARTA         CLOUDY    48  47  99 SE3       30.02S FOG
VIROQUA        CLOUDY    47  47 100 CALM      30.02R VSB<1/4
BOSCOBEL       CLOUDY    51  50  96 S3        30.04R FOG
PRAIRIE DU CHI FOG       51  50  96 E3        30.02S VSB 3/4
PLATTEVILLE    CLOUDY    50  49  97 SE5       30.05R VSB<1/4
$$

WIZ056-057-062-063-064-067-068-241400-
SOUTH CENTRAL WISCONSIN

CITY           SKY/WX    TMP DP  RH WIND       PRES   REMARKS
REEDSBURG      FOG       46  46 100 S3        30.03S VSB 1/2
BARABOO/DELLS  FOG       46  45  96 CALM      30.04R VSB 1/4
LONE ROCK      CLOUDY    52  48  86 SE3       30.04R FOG
MINERAL POINT  FOG       50  48  93 CALM      30.04R VSB<1/4
MADISON        FOG       49  48  97 CALM      30.05R VSB 3/4
MIDDLETON      CLOUDY    49  49 100 CALM      30.05R VSB 1/4
WATERTOWN      FOG       47  47 100 CALM      30.04S VSB 3/4
MONROE         FOG       48  48 100 CALM      30.05R VSB<1/4
JANESVILLE     CLOUDY    50  48  93 CALM      30.05S FOG
$$

WIZ051-052-058>065-066-070>072-241400-
SOUTHEAST WISCONSIN

CITY           SKY/WX    TMP DP  RH WIND       PRES   REMARKS
MILWAUKEE      CLOUDY    51  48  89 W7        30.04S FOG
WAUKESHA       CLOUDY    46  46 100 W5        30.05S FOG
MILWAUKEE/TIMM CLOUDY    48  46  93 W6        30.06R FOG
RACINE         CLOUDY    50  48  93 W5        30.07R FOG
BURLINGTON     CLOUDY    48  47  99 W3        30.05S FOG
KENOSHA        CLOUDY    50  49  96 W7        30.06R FOG
FOND DU LAC    CLOUDY    48  46  93 CALM      30.04R
SHEBOYGAN      CLOUDY    49  46  90 W5        30.04R
WEST BEND      CLOUDY    46  45  93 W6        30.04S FOG
JUNEAU         CLOUDY    47  46  99 CALM      30.05S FOG
$$

LSZ147-162-241400-
LAKE SUPERIOR

STATION/POSITION TIME  TEMP    WIND        PRES    WAVE
                       AIR SEA DIR/SP/G            HT/PER
                 (UTC) (F)     (DEG/KT/KT) (MB)    (FT/S)
W MID LAKE BUOY  1150   47 46  180/  8/ 10 1012.7F   1/ 3
DEVILS ISLAND    1200   49     180/  4/  5 1012.7F
PORT WING        1240   50     210/  3/  7 1012.2F
SAXON HARBOR     1200   52     190/  7/ 13 1012.2F
$$

LMZ867-665-643>646-241400-
LAKE MICHIGAN

STATION/POSITION TIME  TEMP    WIND        PRES    WAVE
                       AIR SEA DIR/SP/G            HT/PER
                 (UTC) (F)     (DEG/KT/KT) (MB)    (FT/S)
CHAMBERS ISLAND  1200   49     220/  3/  5 1015.9S
N MID LAKE BUOY  1150   50 51  230/  8/  8 1015.9F   2/ 5
NORTHPORT PIER   1200   49     170/  2/ 23 1015.9S
SISTER BAY       1213             CALM       N/A
ALGOMA LAKESHORE 1111             CALM       N/A
KEWAUNEE LAKESHO 1200   49     270/  1/  2 1015.6S
SHEBOYGAN LAKESH 1200   49 50  260/  5/  6 1017.4R
PORT WASHINGTON  1240   50     300/  4/  5 1017.9R
ATWATER BUOY     1200   52     270/  4/  6 1018.2S
MILWAUKEE LAKESH 1200   51     300/  5/  7   N/A
S MID LAKE BUOY  1150   54 54  260/ 10/ 10 1017.5R   1/ 3
KENOSHA   LAKESH 1200   51     270/  7/  9 1017.6R
$$

TC  - TEMPERATURE IN CELSIUS
VSB - VISIBILITY IN STATUTE MILES
WCI - WIND CHILL INDEX
HX  - HEAT INDEX




USA.gov is the U.S. government's official web portal to all federal, state and local government web resources and services.